星链-1553 (STARLINK-1553 )

导读 | 星芒AI

STARLINK-1553 是 SpaceX 星链计划中的一颗低轨通信卫星,属于第5批发射的星链卫星群。该卫星运行在约550公里高度的近地轨道,旨在为全球用户提供高速互联网服务。作为星链星座的一部分,它与其他卫星协同工作,通过激光链路和地面站实现数据传输。STARLINK-1553 采用先进推进系统,具备自主变轨和避障能力,提高了星座的稳定性和可持续性。

基本信息
目录编号:
46348
目录名称:
STARLINK-1553
国际标识:
2020-062Z
轨道中心:
EARTH
卫星名称:
星链-1553
卫星全名:
星链-1553 (STARLINK-1553 )
卫星状态:
在轨 (已飞行1930 天)
发射日期:
2020-09-03 UTC
国别 :
美国 (US)
星等 :
--
轨道信息
数据来源 国际轨道数据
星历时间: 2025-12-15T11:45:13+0800
22小时前
查看轨道信息
半长轴: 6847.44km
偏心率: 0.0002009
轨道倾角: 53.041°
近地点辐角 262.531°
升交点赤经 343.251°
平近点角 97.546°
近地点: 467.929km
远地点: 470.681km
周期: 93.984分钟
每日圈数: 15.321823
详细信息
固有亮度:
5
最大亮度:
2.5
卫星平台:
Starlink V1.0
覆盖范围:
全球
运营商:
太空探索技术公司
运营商所在国:
美国
制造商(研发单位):
太空探索技术公司
制造商所在国:
美国
使用方式:
暂无
卫星简介
星链(Starlink)计划是由太空探索技术公司(SpaceX)提出的一个巨型低轨卫星互联网星座项目,计划在2019年至2024年间在太空搭建由约1.2万颗卫星组成的“星链”网络,其中1584颗将部署在地球上空550千米处的近地轨道,并从2020年开始工作。该卫星仍在工作。
2D轨道图
3D轨道图
轨道高度分析图
轨道倾角分析图
轨道综合分析图
查看轨道综合分析图